Waarnemingen

Advertentie
Mijn weer
La Hague, Frankrijk (7020): temperatuur & dauwpunt: 14.01.2018 00:00:00 - 20.01.2018 00:00:00 (CET)La Hague, Frankrijk (7020): windsnelheid & windstoten: 14.01.2018 00:00:00 - 20.01.2018 00:00:00 (CET)La Hague, Frankrijk (7020): windrichting: 14.01.2018 00:00:00 - 20.01.2018 00:00:00 (CET)La Hague, Frankrijk (7020): luchtdruk: 14.01.2018 00:00:00 - 20.01.2018 00:00:00 (CET)La Hague, Frankrijk (7020): zicht: 14.01.2018 00:00:00 - 20.01.2018 00:00:00 (CET)La Hague, Frankrijk (7020): neerslag: 14.01.2018 00:00:00 - 20.01.2018 00:00:00 (CET)
Datum & Tijd tt [°C] td [°C] ff [km/u] ff [kn] fx [km/u] fx [kn] dd ppp [hPa] vv [km] rr [mm]
20.01.2018 00:00:00 - - - - - - - - - -
19.01.2018 23:00:00 9,0 4,6 38 21 50 27 W 1013,1 - 0,0
19.01.2018 22:00:00 8,2 3,4 38 20 52 28 W 1013,6 20 0,0
19.01.2018 21:00:00 8,7 3,3 33 18 46 25 W 1013,7 - 0,0
19.01.2018 20:00:00 8,5 2,9 34 19 51 27 W 1013,5 - 0,0
19.01.2018 19:00:00 8,1 3,2 36 19 60 33 W 1013,7 18 0,0
19.01.2018 18:00:00 8,3 4,1 39 21 60 33 W 1013,4 - 0,0
19.01.2018 17:00:00 8,6 3,4 39 21 60 32 W 1013,2 - 0,2
19.01.2018 16:00:00 8,8 3,0 35 19 53 29 W 1013,4 18 0,0
19.01.2018 15:00:00 8,8 2,4 34 19 56 30 W 1013,2 - 0,0
19.01.2018 14:00:00 9,4 3,1 34 19 50 27 W 1013,5 - 0,0
19.01.2018 13:00:00 9,1 2,0 36 19 50 27 W 1013,8 18 0,0
19.01.2018 12:00:00 8,9 2,0 35 19 48 26 W 1014,1 - 0,0
19.01.2018 11:00:00 8,6 2,4 31 17 49 26 WNW 1013,6 - 0,0
19.01.2018 10:00:00 8,0 2,0 32 17 49 26 WNW 1013,1 15 0,0
19.01.2018 09:00:00 7,6 2,9 36 19 54 29 WNW 1012,6 - 0,0
19.01.2018 08:00:00 7,1 2,8 43 23 56 30 WNW 1012,0 - 0,0
19.01.2018 07:00:00 7,0 3,6 35 19 60 32 WNW 1011,5 12 1,6
19.01.2018 06:00:00 7,5 4,3 29 16 68 37 WNW 1011,4 - 1,4
19.01.2018 05:00:00 8,6 3,2 43 23 59 32 WNW 1010,8 - 0,0
19.01.2018 04:00:00 8,6 3,2 36 20 55 30 W 1011,0 12 0,0
19.01.2018 03:00:00 7,8 3,8 27 15 57 31 W 1011,1 - 0,0
19.01.2018 02:00:00 8,4 3,6 37 20 58 31 W 1011,1 - 0,4
19.01.2018 01:00:00 6,9 3,1 35 19 59 32 WNW 1011,4 15 0,8
19.01.2018 00:00:00 7,5 2,6 45 24 77 41 WNW 1010,8 - 0,0
18.01.2018 23:00:00 8,5 2,3 41 22 61 33 WNW 1010,5 - 0,0
18.01.2018 22:00:00 8,4 3,0 40 21 63 34 W 1010,1 16 0,0
18.01.2018 21:00:00 8,7 2,3 42 23 61 33 WNW 1009,7 - 0,0
18.01.2018 20:00:00 8,9 4,7 36 19 64 35 WNW 1009,2 - 0,0
18.01.2018 19:00:00 8,2 4,0 44 24 70 38 WNW 1008,8 16 0,2
18.01.2018 18:00:00 9,6 4,0 44 24 64 34 W 1007,4 - 0,0
18.01.2018 17:00:00 9,4 5,8 38 21 61 33 W 1007,0 - 0,2
18.01.2018 16:00:00 9,8 6,1 34 18 62 33 W 1006,7 14 0,0
18.01.2018 15:00:00 10,6 6,3 34 18 54 29 W 1006,6 - 0,0
18.01.2018 14:00:00 9,4 6,3 42 23 56 30 WNW 1006,9 - 0,2
18.01.2018 13:00:00 10,9 6,2 29 16 55 30 W 1007,2 14 0,0
18.01.2018 12:00:00 10,4 5,8 36 19 53 28 W 1007,2 - 0,0
18.01.2018 11:00:00 10,3 4,9 38 20 62 34 W 1007,2 - 0,0
18.01.2018 10:00:00 10,3 5,1 40 21 67 36 W 1006,5 10 0,0
18.01.2018 09:00:00 10,3 5,3 44 24 72 39 W 1005,5 - 0,0
18.01.2018 08:00:00 10,5 6,1 46 25 78 42 W 1004,7 - 0,0
18.01.2018 07:00:00 11,5 9,2 48 26 78 42 W 1003,8 8 0,0
18.01.2018 06:00:00 11,6 9,3 60 33 90 48 W 1003,6 - 0,2
18.01.2018 05:00:00 11,5 10,1 56 31 82 44 WZW 1003,5 - 0,2
18.01.2018 04:00:00 11,1 10,0 58 31 90 49 WZW 1003,8 8 0,0
18.01.2018 03:00:00 11,0 9,6 67 36 96 52 WZW 1003,7 - 0,2
18.01.2018 02:00:00 10,7 9,5 65 35 93 50 WZW 1004,6 - 1,0
18.01.2018 01:00:00 10,5 8,9 64 35 91 49 WZW 1005,8 8 0,8
18.01.2018 00:00:00 10,0 8,4 60 32 85 46 ZW 1007,3 - 1,0
17.01.2018 23:00:00 9,5 7,8 55 30 69 38 ZW 1009,0 - 1,0
17.01.2018 22:00:00 9,2 7,1 52 28 71 38 WZW 1011,1 10 0,6
17.01.2018 21:00:00 9,2 6,8 37 20 67 36 W 1012,6 - 1,0
17.01.2018 20:00:00 9,3 5,3 46 25 61 33 WZW 1013,4 - 0,0
17.01.2018 19:00:00 9,2 4,6 41 22 54 29 WZW 1013,6 12 0,2
17.01.2018 18:00:00 9,1 3,9 42 23 58 31 W 1014,6 - 0,0
17.01.2018 17:00:00 9,1 4,7 31 17 59 32 W 1014,9 - 0,0
17.01.2018 16:00:00 9,4 3,8 39 21 63 34 W 1014,7 12 0,0
17.01.2018 15:00:00 9,3 2,6 42 23 60 33 W 1014,8 - 0,0
17.01.2018 14:00:00 9,6 2,9 44 24 63 34 W 1014,8 - 0,0
17.01.2018 13:00:00 9,2 2,3 40 22 65 35 WNW 1014,6 14 0,0
17.01.2018 12:00:00 9,1 2,6 45 25 68 37 W 1014,3 - 0,0
17.01.2018 11:00:00 8,9 0,6 50 27 72 39 W 1013,6 - 0,0
17.01.2018 10:00:00 8,1 0,8 52 28 72 39 WNW 1012,9 10 0,0
17.01.2018 09:00:00 7,9 1,1 50 27 75 40 WNW 1011,7 - 0,0
17.01.2018 08:00:00 7,7 1,3 54 29 77 41 WNW 1010,5 - 0,0
17.01.2018 07:00:00 7,6 1,4 61 33 86 47 WNW 1009,4 8 0,0
17.01.2018 06:00:00 7,3 2,0 61 33 85 46 WNW 1007,9 - 0,0
17.01.2018 05:00:00 7,3 0,3 61 33 81 44 WNW 1006,5 - 0,0
17.01.2018 04:00:00 7,8 0,5 59 32 82 45 WNW 1005,4 8 0,0
17.01.2018 03:00:00 7,5 0,9 54 29 93 50 WNW 1004,6 - 0,0
17.01.2018 02:00:00 7,3 1,4 50 27 78 42 WNW 1003,9 - 0,0
17.01.2018 01:00:00 6,7 0,8 58 32 85 46 WNW 1003,5 8 0,0
17.01.2018 00:00:00 7,5 - 58 31 87 47 WNW - - 0,0
16.01.2018 23:00:00 7,7 2,2 60 32 87 47 W 1001,3 - 0,0
16.01.2018 22:00:00 7,1 2,4 60 33 86 47 WNW 1001,3 8 0,2
16.01.2018 21:00:00 8,1 2,5 52 28 80 43 W 1000,5 - 0,0
16.01.2018 20:00:00 7,2 3,8 56 30 84 46 WNW 1000,6 - 0,2
16.01.2018 19:00:00 7,9 4,8 46 25 94 51 W 1000,7 8 0,4
16.01.2018 18:00:00 7,7 4,8 44 24 74 40 W 1000,6 - 1,2
16.01.2018 17:00:00 7,4 4,5 43 23 93 50 W 1001,1 - 0,6
16.01.2018 16:00:00 9,2 4,2 48 26 77 41 W 1001,4 8 0,0
16.01.2018 15:00:00 8,9 2,7 48 26 87 47 W 1001,6 - 0,0
16.01.2018 14:00:00 9,6 4,4 49 26 80 43 W 1002,2 - 0,0
16.01.2018 13:00:00 9,3 3,9 54 29 76 41 W 1002,7 8 0,0
16.01.2018 12:00:00 8,4 5,0 44 24 85 46 W 1003,0 - 0,8
16.01.2018 11:00:00 8,5 5,2 43 23 75 40 W 1002,8 - 0,4
16.01.2018 10:00:00 8,8 5,4 43 23 74 40 WNW 1002,5 8 0,2
16.01.2018 09:00:00 9,7 4,3 54 29 82 44 W 1001,9 - 0,0
16.01.2018 08:00:00 9,7 5,3 51 27 77 41 W 1001,1 - 0,0
16.01.2018 07:00:00 9,9 5,7 48 26 70 38 W 1000,4 8 0,0
16.01.2018 06:00:00 9,9 5,7 48 26 72 39 W 1000,0 - 0,2
16.01.2018 05:00:00 8,5 6,1 57 31 94 51 W 1000,0 - 1,0
16.01.2018 04:00:00 10,6 6,9 51 28 75 40 W 999,7 8 0,0
16.01.2018 03:00:00 10,7 7,0 48 26 70 38 W 999,8 - 0,0
16.01.2018 02:00:00 10,1 5,9 58 31 82 44 W 1000,1 - 0,4
16.01.2018 01:00:00 10,2 6,3 44 24 75 41 W 1000,5 8 0,8
16.01.2018 00:00:00 10,4 6,2 45 24 86 46 W 1000,7 - 0,0
15.01.2018 23:00:00 10,3 7,5 45 25 70 38 W 1000,7 - 0,2
15.01.2018 22:00:00 10,0 6,9 49 26 73 39 W 1000,9 5 0,0
15.01.2018 21:00:00 10,3 6,1 48 26 74 40 W 1000,8 - 0,0
15.01.2018 20:00:00 10,3 7,4 42 23 66 35 W 1001,3 - 0,0
15.01.2018 19:00:00 10,8 6,9 39 21 69 37 W 1000,6 8 0,0
15.01.2018 18:00:00 10,8 7,1 41 22 67 36 W 1000,5 - 0,0
15.01.2018 17:00:00 10,9 7,0 43 23 83 45 W 999,9 - 0,0
15.01.2018 16:00:00 11,4 7,7 49 26 73 39 W 999,3 8 0,0
15.01.2018 15:00:00 11,5 8,2 50 27 78 42 W 999,0 - 0,0
15.01.2018 14:00:00 11,5 9,6 48 26 76 41 W 999,4 - 0,0
15.01.2018 13:00:00 11,3 10,4 46 25 69 37 WZW 999,8 8 0,6
15.01.2018 12:00:00 10,9 10,1 49 27 81 44 ZW 1001,0 - 1,2
15.01.2018 11:00:00 10,4 9,5 51 27 77 41 ZW 1001,8 - 3,3
15.01.2018 10:00:00 9,8 9,0 53 29 79 42 ZZW 1003,1 1,5 0,4
15.01.2018 09:00:00 9,4 8,6 50 27 77 42 ZZW 1004,9 - 0,8
15.01.2018 08:00:00 8,8 7,9 50 27 76 41 ZZW 1006,4 - 1,6
15.01.2018 07:00:00 8,8 7,6 53 29 77 41 ZZW 1007,9 6 1,4
15.01.2018 06:00:00 9,1 7,2 41 22 67 36 ZZW 1009,4 - 0,4
15.01.2018 05:00:00 9,0 6,4 48 26 71 38 ZZW 1010,9 - 0,0
15.01.2018 04:00:00 9,1 6,4 44 24 65 35 ZW 1012,1 8 0,0
15.01.2018 03:00:00 8,9 6,0 42 23 59 32 ZZW 1013,1 - 0,0
15.01.2018 02:00:00 8,7 5,8 38 21 53 29 ZZW 1014,7 - 0,0
15.01.2018 01:00:00 8,4 5,1 35 19 49 26 ZW 1015,6 8 0,0
15.01.2018 00:00:00 7,8 4,2 30 16 43 23 ZW 1016,3 - 0,0
14.01.2018 23:00:00 8,0 3,8 31 17 42 23 ZW 1017,2 - 0,0
14.01.2018 22:00:00 7,2 3,4 22 12 34 18 ZW 1017,7 10 0,0
14.01.2018 21:00:00 7,2 3,4 20 11 29 16 ZW 1018,2 - 0,0
14.01.2018 20:00:00 7,1 3,3 19 10 27 15 ZW 1018,4 - 0,0
14.01.2018 19:00:00 6,9 3,1 13 7 21 11 ZZW 1017,5 10 0,0
14.01.2018 18:00:00 7,2 2,9 10 6 15 8 ZW 1017,7 - 0,0
14.01.2018 17:00:00 7,3 2,2 0 0 7 4 N 1017,6 - 0,0
14.01.2018 16:00:00 7,8 1,4 0 0 11 6 N 1017,9 8 0,0
14.01.2018 15:00:00 7,9 2,8 5 3 9 5 ZO 1017,5 - 0,0
14.01.2018 14:00:00 7,7 2,8 5 3 14 7 OZO 1017,8 - 0,0
14.01.2018 13:00:00 7,7 3,0 8 4 16 9 OZO 1018,0 8 0,0
14.01.2018 12:00:00 8,5 3,1 8 4 17 9 ZO 1018,4 - 0,0
14.01.2018 11:00:00 7,5 3,0 11 6 28 15 ZO 1018,1 - 0,0
14.01.2018 10:00:00 6,9 2,6 18 10 35 19 O 1017,7 10 0,0
14.01.2018 09:00:00 6,9 2,8 19 11 33 18 O 1016,9 - 0,0
14.01.2018 08:00:00 6,8 2,5 24 13 39 21 O 1016,6 - 0,0
14.01.2018 07:00:00 6,9 2,8 27 15 43 23 ONO 1016,3 10 0,0
14.01.2018 06:00:00 6,6 3,6 21 11 35 19 O 1016,0 - 0,0
14.01.2018 05:00:00 6,0 3,2 18 10 26 14 O 1016,0 - 0,0
14.01.2018 04:00:00 4,8 2,0 9 5 14 7 OZO 1016,2 8 0,0
14.01.2018 03:00:00 4,8 2,2 6 4 13 7 OZO 1016,2 - 0,0
14.01.2018 02:00:00 4,8 2,2 8 4 12 6 ZZO 1016,3 - 0,0
14.01.2018 01:00:00 4,7 2,1 8 4 14 8 ZO 1016,3 10 0,0
14.01.2018 00:00:00 5,4 2,6 10 6 16 9 ZZO 1016,3 - 0,0

tt = temperatuur
td = dauwpunt
ff = windsnelheid
fx = windstoten
dd = windrichting
ppp = luchtdruk
vv = zicht
rr = neerslag

Weerstations in de omgeving